"read_dt","SO2 (ppb)","flags","PMT voltage (V)","lamp voltage (V)","lamp intensity (Hz)","internal temp (C)","react chamber temp (C)","sample flow (l/min)","pres (mmHg)","SO2 bkg (ppb)","SO2 coefficient"
2017-05-23 00:00:00,1773E-3,5C000400,-0724,0838,12156,026.5,045.4,0.224,754.1,01.17,0.508
2017-05-23 00:01:00,1804E-3,5C000400,-0724,0837,12223,026.5,045.4,0.224,754.1,01.17,0.508
2017-05-23 00:02:00,1773E-3,5C000400,-0724,0838,12138,026.5,045.4,0.224,754.1,01.17,0.508
2017-05-23 00:03:00,1819E-3,5C000400,-0724,0833,12350,026.5,045.4,0.224,754.1,01.17,0.508
2017-05-23 00:04:00,1675E-3,5C000400,-0724,0841,11379,026.5,045.4,0.224,754.0,01.17,0.508
2017-05-23 00:05:00,1852E-3,5C000400,-0724,0838,12393,026.5,045.4,0.224,754.0,01.17,0.508
2017-05-23 00:06:00,1700E-3,5C000400,-0724,0836,12528,026.5,045.4,0.224,754.0,01.17,0.508
2017-05-23 00:07:00,1693E-3,5C000400,-0724,0838,11081,026.5,045.4,0.224,754.0,01.17,0.508
2017-05-23 00:08:00,1670E-3,5C000400,-0724,0838,12155,026.5,045.4,0.224,754.0,01.17,0.508
2017-05-23 00:09:00,1670E-3,5C000400,-0724,0837,11367,026.5,045.4,0.224,754.0,01.17,0.508
2017-05-23 00:10:00,1561E-3,5C000400,-0724,0836,11954,026.5,045.4,0.225,754.0,01.17,0.508
2017-05-23 00:11:00,1807E-3,5C000400,-0724,0837,12455,026.5,045.4,0.225,754.0,01.17,0.508
2017-05-23 00:12:00,1736E-3,5C000400,-0724,0839,10905,026.6,045.4,0.225,754.0,01.17,0.508
2017-05-23 00:13:00,1866E-3,5C000400,-0724,0836,12133,026.5,045.4,0.224,754.0,01.17,0.508
2017-05-23 00:14:00,1881E-3,5C000400,-0724,0836,10966,026.5,045.4,0.224,754.0,01.17,0.508
2017-05-23 00:15:00,1644E-3,5C000400,-0724,0838,12366,026.6,045.4,0.224,754.0,01.17,0.508
2017-05-23 00:16:00,1598E-3,5C000400,-0724,0837,10910,026.6,045.4,0.224,754.0,01.17,0.508
2017-05-23 00:17:00,1564E-3,5C000400,-0724,0836,12279,026.6,045.4,0.224,754.0,01.17,0.508
2017-05-23 00:18:00,1739E-3,5C000400,-0724,0837,11003,026.6,045.4,0.224,754.0,01.17,0.508
2017-05-23 00:19:00,1718E-3,5C000400,-0724,0836,11026,026.6,045.4,0.224,754.0,01.17,0.508
2017-05-23 00:20:00,1773E-3,5C000400,-0724,0837,12138,026.6,045.4,0.224,754.0,01.17,0.508
2017-05-23 00:21:00,1690E-3,5C000400,-0724,0836,12103,026.6,045.4,0.224,754.0,01.17,0.508
2017-05-23 00:22:00,1868E-3,5C000400,-0724,0837,12186,026.6,045.4,0.224,754.0,01.17,0.508
2017-05-23 00:23:00,1816E-3,5C000400,-0724,0836,12105,026.6,045.4,0.224,754.0,01.17,0.508
2017-05-23 00:24:00,1672E-3,5C000400,-0724,0835,12068,026.6,045.4,0.224,754.0,01.17,0.508
2017-05-23 00:25:00,1692E-3,5C000400,-0724,0836,12092,026.6,045.4,0.224,754.0,01.17,0.508
2017-05-23 00:26:00,1671E-3,5C000400,-0724,0837,12033,026.6,045.4,0.224,754.0,01.17,0.508
2017-05-23 00:27:00,1660E-3,5C000400,-0724,0836,12107,026.6,045.4,0.224,754.0,01.17,0.508
2017-05-23 00:28:00,1844E-3,5C000400,-0724,0836,12085,026.6,045.4,0.224,754.0,01.17,0.508
2017-05-23 00:29:00,1769E-3,5C000400,-0724,0836,10964,026.6,045.4,0.224,754.0,01.17,0.508
2017-05-23 00:30:00,1713E-3,5C000400,-0724,0839,12261,026.6,045.4,0.224,754.0,01.17,0.508
2017-05-23 00:31:00,1698E-3,5C000400,-0724,0837,12023,026.6,045.4,0.224,754.0,01.17,0.508
2017-05-23 00:32:00,1726E-3,5C000410,-0724,0838,12297,026.6,045.4,0.224,754.0,01.17,0.508
2017-05-23 00:33:00,1721E-3,5C000400,-0724,0836,12030,026.6,045.4,0.224,754.0,01.17,0.508
2017-05-23 00:34:00,1712E-3,5C000400,-0724,0836,12162,026.6,045.4,0.224,754.0,01.17,0.508
2017-05-23 00:35:00,1792E-3,5C000400,-0724,0837,12171,026.6,045.4,0.224,754.0,01.17,0.508
2017-05-23 00:36:00,1686E-3,5C000400,-0724,0839,12166,026.7,045.4,0.224,754.0,01.17,0.508
2017-05-23 00:37:00,1712E-3,5C000400,-0724,0836,12040,026.6,045.4,0.224,754.0,01.17,0.508
2017-05-23 00:38:00,1741E-3,5C000400,-0724,0838,11994,026.7,045.4,0.223,754.0,01.17,0.508
2017-05-23 00:39:00,1654E-3,5C000400,-0724,0838,12092,026.7,045.4,0.224,754.0,01.17,0.508
2017-05-23 00:40:00,1584E-3,5C000400,-0724,0838,12282,026.7,045.4,0.224,754.0,01.17,0.508
2017-05-23 00:41:00,1655E-3,5C000400,-0724,0838,12140,026.7,045.4,0.224,754.0,01.17,0.508
2017-05-23 00:42:00,1604E-3,5C000400,-0724,0839,10939,026.7,045.4,0.224,754.0,01.17,0.508
2017-05-23 00:43:00,1696E-3,5C000400,-0724,0840,11293,026.7,045.4,0.224,754.0,01.17,0.508
2017-05-23 00:44:00,1745E-3,5C000400,-0724,0836,12196,026.7,045.4,0.224,754.0,01.17,0.508
2017-05-23 00:45:00,1784E-3,5C000410,-0724,0841,12346,026.7,045.4,0.224,754.0,01.17,0.508
2017-05-23 00:46:00,1744E-3,5C000400,-0724,0840,11161,026.7,045.4,0.224,754.0,01.17,0.508
2017-05-23 00:47:00,1725E-3,5C000400,-0724,0841,11092,026.7,045.4,0.224,754.0,01.17,0.508
2017-05-23 00:48:00,1766E-3,5C000400,-0724,0838,11109,026.7,045.4,0.224,754.0,01.17,0.508
2017-05-23 00:49:00,1761E-3,5C000400,-0724,0842,11111,026.7,045.4,0.224,754.0,01.17,0.508
2017-05-23 00:50:00,1760E-3,5C000400,-0724,0838,12086,026.7,045.4,0.224,754.0,01.17,0.508
2017-05-23 00:51:00,1679E-3,5C000400,-0724,0837,12058,026.7,045.4,0.224,754.0,01.17,0.508
2017-05-23 00:52:00,1787E-3,5C000400,-0724,0837,12007,026.7,045.4,0.224,754.0,01.17,0.508
2017-05-23 00:53:00,1875E-3,5C000400,-0724,0837,12134,026.7,045.4,0.223,754.0,01.17,0.508
2017-05-23 00:54:00,1714E-3,5C000400,-0724,0838,10914,026.7,045.4,0.224,754.0,01.17,0.508
2017-05-23 00:55:00,1703E-3,5C000400,-0724,0839,12204,026.8,045.4,0.224,754.0,01.17,0.508
2017-05-23 00:56:00,1784E-3,5C000400,-0724,0841,11185,026.8,045.4,0.224,754.0,01.17,0.508
2017-05-23 00:57:00,1720E-3,5C000400,-0724,0839,12135,026.8,045.4,0.223,754.0,01.17,0.508
2017-05-23 00:58:00,1516E-3,5C000410,-0724,0846,8761,026.8,045.4,0.224,754.0,01.17,0.508
2017-05-23 00:59:00,1790E-3,5C000400,-0724,0844,12420,026.8,045.4,0.224,754.0,01.17,0.508
2017-05-23 01:00:00,1600E-3,5C000400,-0724,0840,12274,026.8,045.4,0.224,754.0,01.17,0.508
2017-05-23 01:01:00,1684E-3,5C000400,-0724,0838,12249,026.8,045.4,0.223,754.0,01.17,0.508
2017-05-23 01:02:00,1704E-3,5C000400,-0724,0840,11290,026.8,045.4,0.224,754.0,01.17,0.508
2017-05-23 01:03:00,1835E-3,5C000400,-0724,0839,11075,026.8,045.4,0.224,754.0,01.17,0.508
2017-05-23 01:04:00,1619E-3,5C000410,-0724,0844,10196,026.8,045.4,0.223,754.0,01.17,0.508
2017-05-23 01:05:00,1713E-3,5C000400,-0724,0841,12202,026.8,045.4,0.223,754.0,01.17,0.508
2017-05-23 01:06:00,1611E-3,5C000400,-0724,0842,12357,026.8,045.4,0.224,754.0,01.17,0.508
2017-05-23 01:07:00,1649E-3,5C000400,-0724,0839,12180,026.8,045.4,0.224,754.0,01.17,0.508
2017-05-23 01:08:00,1671E-3,5C000400,-0724,0838,11012,026.8,045.4,0.224,754.0,01.17,0.508
2017-05-23 01:09:00,1671E-3,5C000400,-0724,0841,12195,026.9,045.4,0.223,754.0,01.17,0.508
2017-05-23 01:10:00,1631E-3,5C000400,-0724,0843,12200,026.8,045.4,0.224,754.0,01.17,0.508
2017-05-23 01:11:00,1664E-3,5C000410,-0724,0838,11173,026.9,045.4,0.224,754.0,01.17,0.508
2017-05-23 01:12:00,1751E-3,5C000400,-0724,0837,12080,026.9,045.4,0.224,754.0,01.17,0.508
2017-05-23 01:13:00,1659E-3,5C000400,-0724,0840,12280,026.9,045.4,0.223,754.0,01.17,0.508
2017-05-23 01:14:00,1757E-3,5C000400,-0724,0836,12130,026.9,045.4,0.223,754.0,01.17,0.508
2017-05-23 01:15:00,1758E-3,5C000400,-0724,0837,12088,026.9,045.4,0.223,754.0,01.17,0.508
2017-05-23 01:16:00,1714E-3,5C000400,-0724,0838,12090,026.9,045.4,0.223,754.0,01.17,0.508
2017-05-23 01:17:00,1615E-3,5C000400,-0724,0843,12421,026.9,045.4,0.223,754.0,01.17,0.508
2017-05-23 01:18:00,1714E-3,5C000400,-0724,0844,12402,026.9,045.4,0.223,754.0,01.17,0.508
2017-05-23 01:19:00,1743E-3,5C000400,-0724,0839,12168,026.9,045.4,0.223,754.0,01.17,0.508
2017-05-23 01:20:00,1748E-3,5C000400,-0724,0842,12410,026.9,045.4,0.223,754.0,01.17,0.508
2017-05-23 01:21:00,1653E-3,5C000400,-0724,0839,12187,026.9,045.4,0.223,754.0,01.17,0.508
2017-05-23 01:22:00,1726E-3,5C000400,-0724,0837,12137,026.9,045.4,0.223,754.0,01.17,0.508
2017-05-23 01:23:00,1697E-3,5C000400,-0724,0840,12236,026.9,045.4,0.223,754.0,01.17,0.508
2017-05-23 01:24:00,1819E-3,5C000400,-0724,0838,12008,026.9,045.4,0.223,754.0,01.17,0.508
2017-05-23 01:25:00,1686E-3,5C000400,-0724,0837,11053,026.9,045.4,0.224,754.0,01.17,0.508
2017-05-23 01:26:00,1798E-3,5C000400,-0724,0838,12163,026.9,045.4,0.223,754.0,01.17,0.508
2017-05-23 01:27:00,1740E-3,5C000400,-0724,0838,12185,027.0,045.4,0.223,754.0,01.17,0.508
2017-05-23 01:28:00,1665E-3,5C000400,-0724,0842,10021,027.0,045.4,0.223,754.0,01.17,0.508
2017-05-23 01:29:00,1576E-3,5C000410,-0724,0843,12611,027.0,045.4,0.223,754.0,01.17,0.508
2017-05-23 01:30:00,1597E-3,5C000400,-0724,0840,11169,027.0,045.4,0.223,754.0,01.17,0.508
2017-05-23 01:31:00,1669E-3,5C000400,-0724,0840,12105,027.0,045.4,0.223,753.9,01.17,0.508
2017-05-23 01:32:00,1760E-3,5C000400,-0724,0837,12150,027.0,045.4,0.223,754.0,01.17,0.508
2017-05-23 01:33:00,1684E-3,5C000400,-0724,0846,12424,027.0,045.4,0.223,754.0,01.17,0.508
2017-05-23 01:34:00,1672E-3,5C000400,-0724,0842,12524,027.0,045.4,0.223,753.9,01.17,0.508
2017-05-23 01:35:00,1701E-3,5C000400,-0724,0844,8748,027.0,045.4,0.223,753.9,01.17,0.508
2017-05-23 01:36:00,1724E-3,5C000400,-0724,0837,12175,027.0,045.4,0.223,754.0,01.17,0.508
2017-05-23 01:37:00,1761E-3,5C000400,-0724,0837,12264,027.0,045.4,0.223,753.9,01.17,0.508
2017-05-23 01:38:00,1598E-3,5C000400,-0724,0841,10999,027.1,045.4,0.223,754.0,01.17,0.508
2017-05-23 01:39:00,1739E-3,5C000400,-0724,0841,12322,027.1,045.4,0.223,753.9,01.17,0.508
2017-05-23 01:40:00,1803E-3,5C000400,-0724,0837,12104,027.1,045.4,0.223,753.9,01.17,0.508
2017-05-23 01:41:00,1717E-3,5C000400,-0724,0837,12024,027.1,045.4,0.223,753.9,01.17,0.508
2017-05-23 01:42:00,1727E-3,5C000400,-0724,0836,12215,027.1,045.4,0.223,753.9,01.17,0.508
2017-05-23 01:43:00,1820E-3,5C000400,-0724,0837,12139,027.1,045.4,0.223,753.9,01.17,0.508
2017-05-23 01:44:00,1668E-3,5C000400,-0724,0836,12049,027.1,045.4,0.223,753.9,01.17,0.508
2017-05-23 01:45:00,1744E-3,5C000400,-0724,0837,12108,027.1,045.4,0.223,753.9,01.17,0.508
2017-05-23 01:46:00,1742E-3,5C000400,-0724,0837,12131,027.1,045.4,0.223,753.9,01.17,0.508
2017-05-23 01:47:00,1738E-3,5C000400,-0724,0836,11946,027.1,045.4,0.223,753.9,01.17,0.508
2017-05-23 01:48:00,1765E-3,5C000400,-0724,0836,12150,027.1,045.4,0.223,753.9,01.17,0.508
2017-05-23 01:49:00,1715E-3,5C000400,-0724,0837,12175,027.1,045.4,0.223,753.9,01.17,0.508
2017-05-23 01:50:00,1624E-3,5C000400,-0724,0838,12182,027.1,045.4,0.223,753.9,01.17,0.508
2017-05-23 01:51:00,1673E-3,5C000400,-0724,0840,12155,027.2,045.4,0.223,753.9,01.17,0.508
2017-05-23 01:52:00,1645E-3,5C000400,-0724,0837,12157,027.2,045.4,0.223,753.9,01.17,0.508
2017-05-23 01:53:00,1742E-3,5C000400,-0724,0836,12015,027.2,045.4,0.223,753.9,01.17,0.508
2017-05-23 01:54:00,1826E-3,5C000400,-0724,0836,12030,027.2,045.4,0.223,753.9,01.17,0.508
2017-05-23 01:55:00,1745E-3,5C000400,-0724,0836,11152,027.2,045.4,0.223,753.9,01.17,0.508
2017-05-23 01:56:00,1704E-3,5C000400,-0724,0839,12259,027.2,045.4,0.223,753.9,01.17,0.508
2017-05-23 01:57:00,1780E-3,5C000400,-0724,0839,12353,027.2,045.4,0.223,753.9,01.17,0.508
2017-05-23 01:58:00,1653E-3,5C000400,-0724,0840,12193,027.2,045.4,0.223,753.9,01.17,0.508
2017-05-23 01:59:00,1710E-3,5C000400,-0724,0837,12086,027.2,045.4,0.223,753.9,01.17,0.508
2017-05-23 02:00:00,1785E-3,5C000400,-0724,0837,12063,027.2,045.4,0.223,753.9,01.17,0.508
2017-05-23 02:01:00,1718E-3,5C000400,-0724,0838,12307,027.2,045.4,0.223,753.9,01.17,0.508
2017-05-23 02:02:00,1786E-3,5C000400,-0724,0840,12238,027.3,045.4,0.222,753.9,01.17,0.508
2017-05-23 02:03:00,1686E-3,5C000400,-0724,0840,12153,027.3,045.4,0.223,753.9,01.17,0.508
2017-05-23 02:04:00,1671E-3,5C000400,-0724,0836,12079,027.3,045.4,0.223,753.8,01.17,0.508
2017-05-23 02:05:00,1638E-3,5C000400,-0724,0844,11293,027.3,045.4,0.223,753.9,01.17,0.508
2017-05-23 02:06:00,1748E-3,5C000400,-0724,0838,12089,027.3,045.4,0.223,753.9,01.17,0.508
2017-05-23 02:07:00,1776E-3,5C000400,-0724,0839,12100,027.3,045.4,0.222,753.9,01.17,0.508
2017-05-23 02:08:00,1640E-3,5C000400,-0724,0838,12073,027.3,045.4,0.223,753.8,01.17,0.508
2017-05-23 02:09:00,1776E-3,5C000400,-0724,0838,11223,027.3,045.4,0.223,753.8,01.17,0.508
2017-05-23 02:10:00,1778E-3,5C000400,-0724,0838,12054,027.3,045.4,0.223,753.8,01.17,0.508
2017-05-23 02:11:00,1731E-3,5C000410,-0724,0837,12419,027.3,045.4,0.223,753.8,01.17,0.508
2017-05-23 02:12:00,1674E-3,5C000400,-0724,0840,11063,027.4,045.4,0.223,753.8,01.17,0.508
2017-05-23 02:13:00,1843E-3,5C000400,-0724,0837,12206,027.3,045.4,0.222,753.8,01.17,0.508
2017-05-23 02:14:00,1758E-3,5C000400,-0724,0839,12397,027.4,045.5,0.222,753.8,01.17,0.508
2017-05-23 02:15:00,1622E-3,5C000400,-0724,0847,11534,027.4,045.4,0.222,753.8,01.17,0.508
2017-05-23 02:16:00,1734E-3,5C000400,-0724,0836,12066,027.4,045.4,0.223,753.8,01.17,0.508
2017-05-23 02:17:00,1734E-3,5C000400,-0724,0836,12225,027.4,045.5,0.223,753.8,01.17,0.508
2017-05-23 02:18:00,1835E-3,5C000400,-0724,0839,11299,027.4,045.4,0.222,753.8,01.17,0.508
2017-05-23 02:19:00,1743E-3,5C000400,-0724,0839,12281,027.4,045.4,0.222,753.8,01.17,0.508
2017-05-23 02:20:00,1622E-3,5C000400,-0724,0839,12406,027.4,045.4,0.222,753.8,01.17,0.508
2017-05-23 02:21:00,1739E-3,5C000400,-0724,0839,12333,027.4,045.4,0.222,753.8,01.17,0.508
2017-05-23 02:22:00,1583E-3,5C000400,-0724,0839,12122,027.4,045.4,0.222,753.8,01.17,0.508
2017-05-23 02:23:00,1736E-3,5C000400,-0724,0837,12156,027.5,045.4,0.222,753.8,01.17,0.508
2017-05-23 02:24:00,1852E-3,5C000400,-0724,0837,9779,027.5,045.4,0.222,753.8,01.17,0.508
2017-05-23 02:25:00,1795E-3,5C000400,-0724,0838,11024,027.5,045.4,0.222,753.8,01.17,0.508
2017-05-23 02:26:00,1794E-3,5C000400,-0724,0841,12010,027.5,045.4,0.222,753.8,01.17,0.508
2017-05-23 02:27:00,1713E-3,5C000400,-0724,0841,11164,027.5,045.4,0.222,753.8,01.17,0.508
2017-05-23 02:28:00,1602E-3,5C000400,-0724,0837,12132,027.5,045.4,0.222,753.8,01.17,0.508
2017-05-23 02:29:00,1593E-3,5C000400,-0724,0839,11092,027.5,045.4,0.222,753.8,01.17,0.508
2017-05-23 02:30:00,1819E-3,5C000400,-0724,0840,12328,027.5,045.5,0.222,753.8,01.17,0.508
2017-05-23 02:31:00,1628E-3,5C000400,-0724,0840,10996,027.5,045.5,0.222,753.8,01.17,0.508
2017-05-23 02:32:00,1890E-3,5C000400,-0724,0842,12241,027.6,045.5,0.222,753.8,01.17,0.508
2017-05-23 02:33:00,1730E-3,5C000400,-0724,0837,12115,027.6,045.4,0.222,753.7,01.17,0.508
2017-05-23 02:34:00,1834E-3,5C000400,-0724,0840,12163,027.6,045.5,0.222,753.7,01.17,0.508
2017-05-23 02:35:00,1799E-3,5C000400,-0724,0839,12067,027.6,045.5,0.222,753.7,01.17,0.508
2017-05-23 02:36:00,1709E-3,5C000400,-0724,0839,11156,027.6,045.5,0.222,753.7,01.17,0.508
2017-05-23 02:37:00,1648E-3,5C000400,-0724,0840,12318,027.6,045.4,0.222,753.7,01.17,0.508
2017-05-23 02:38:00,1722E-3,5C000400,-0724,0841,12322,027.6,045.4,0.222,753.7,01.17,0.508
2017-05-23 02:39:00,1907E-3,5C000400,-0724,0836,12147,027.7,045.5,0.222,753.7,01.17,0.508
2017-05-23 02:40:00,1823E-3,5C000400,-0724,0837,12142,027.7,045.5,0.222,753.7,01.17,0.508
2017-05-23 02:41:00,1788E-3,5C000400,-0724,0837,12312,027.7,045.4,0.222,753.7,01.17,0.508
2017-05-23 02:42:00,1726E-3,5C000400,-0724,0839,12447,027.7,045.4,0.222,753.7,01.17,0.508
2017-05-23 02:43:00,1755E-3,5C000400,-0724,0838,12184,027.7,045.5,0.222,753.7,01.17,0.508
2017-05-23 02:44:00,1755E-3,5C000400,-0724,0841,12334,027.7,045.4,0.222,753.7,01.17,0.508
2017-05-23 02:45:00,1774E-3,5C000400,-0724,0840,12284,027.8,045.4,0.221,753.7,01.17,0.508
2017-05-23 02:46:00,1784E-3,5C000400,-0724,0839,12117,027.8,045.4,0.221,753.7,01.17,0.508
2017-05-23 02:47:00,1808E-3,5C000400,-0724,0837,12137,027.8,045.4,0.222,753.7,01.17,0.508
2017-05-23 02:48:00,1820E-3,5C000400,-0724,0836,12118,027.8,045.4,0.222,753.7,01.17,0.508
2017-05-23 02:49:00,1700E-3,5C000400,-0724,0838,12013,027.8,045.4,0.222,753.7,01.17,0.508
2017-05-23 02:50:00,1663E-3,5C000400,-0724,0840,12345,027.8,045.4,0.222,753.7,01.17,0.508
2017-05-23 02:51:00,1655E-3,5C000400,-0724,0839,12248,027.9,045.4,0.221,753.7,01.17,0.508
2017-05-23 02:52:00,1842E-3,5C000400,-0724,0838,12013,027.9,045.4,0.221,753.7,01.17,0.508
2017-05-23 02:53:00,1741E-3,5C000400,-0724,0837,12125,027.9,045.5,0.221,753.7,01.17,0.508
2017-05-23 02:54:00,1811E-3,5C000400,-0724,0837,12154,027.9,045.4,0.221,753.7,01.17,0.508
2017-05-23 02:55:00,1775E-3,5C000400,-0724,0837,12119,027.9,045.4,0.221,753.7,01.17,0.508
2017-05-23 02:56:00,1732E-3,5C000400,-0724,0837,12183,027.9,045.4,0.222,753.7,01.17,0.508
2017-05-23 02:57:00,1944E-3,5C000400,-0724,0836,12234,027.9,045.4,0.221,753.7,01.17,0.508
2017-05-23 02:58:00,1742E-3,5C000400,-0724,0839,12248,027.9,045.4,0.221,753.7,01.17,0.508
2017-05-23 02:59:00,1784E-3,5C000400,-0724,0837,12155,028.0,045.5,0.221,753.7,01.17,0.508
2017-05-23 03:00:00,1728E-3,5C000400,-0724,0839,10795,028.0,045.5,0.221,753.7,01.17,0.508
2017-05-23 03:01:00,1749E-3,5C000400,-0724,0840,12115,028.0,045.5,0.221,753.7,01.17,0.508
2017-05-23 03:02:00,1760E-3,5C000400,-0724,0837,11951,028.0,045.5,0.221,753.7,01.17,0.508
2017-05-23 03:03:00,1844E-3,5C000400,-0724,0835,12071,028.0,045.5,0.221,753.7,01.17,0.508
2017-05-23 03:04:00,1790E-3,5C000400,-0724,0838,11916,028.0,045.5,0.221,753.7,01.17,0.508
2017-05-23 03:05:00,1689E-3,5C000400,-0724,0838,11908,028.1,045.4,0.221,753.7,01.17,0.508
2017-05-23 03:06:00,1747E-3,5C000400,-0724,0837,12233,028.1,045.5,0.221,753.7,01.17,0.508
2017-05-23 03:07:00,1815E-3,5C000400,-0724,0836,12123,028.1,045.4,0.221,753.7,01.17,0.508
2017-05-23 03:08:00,1839E-3,5C000400,-0724,0837,12143,028.1,045.5,0.221,753.7,01.17,0.508
2017-05-23 03:09:00,1648E-3,5C000400,-0724,0836,12083,028.1,045.4,0.221,753.7,01.17,0.508
2017-05-23 03:10:00,1893E-3,5C000400,-0724,0837,12082,028.1,045.5,0.221,753.6,01.17,0.508
2017-05-23 03:11:00,1757E-3,5C000400,-0724,0837,12073,028.1,045.5,0.221,753.7,01.17,0.508
2017-05-23 03:12:00,1852E-3,5C000400,-0724,0836,12066,028.2,045.5,0.221,753.6,01.17,0.508
2017-05-23 03:13:00,1805E-3,5C000400,-0724,0836,12102,028.2,045.4,0.221,753.6,01.17,0.508
2017-05-23 03:14:00,1791E-3,5C000400,-0724,0839,12121,028.2,045.5,0.221,753.7,01.17,0.508
2017-05-23 03:15:00,1754E-3,5C000400,-0724,0838,12124,028.2,045.5,0.220,753.7,01.17,0.508
2017-05-23 03:16:00,1881E-3,5C000400,-0724,0837,12091,028.2,045.5,0.220,753.7,01.17,0.508
2017-05-23 03:17:00,1679E-3,5C000400,-0724,0838,12065,028.2,045.5,0.221,753.7,01.17,0.508
2017-05-23 03:18:00,1695E-3,5C000400,-0724,0837,11880,028.2,045.5,0.221,753.7,01.17,0.508
2017-05-23 03:19:00,1640E-3,5C000400,-0724,0837,12135,028.3,045.5,0.221,753.7,01.17,0.508
2017-05-23 03:20:00,1827E-3,5C000400,-0724,0837,12091,028.3,045.5,0.221,753.7,01.17,0.508
2017-05-23 03:21:00,1792E-3,5C000400,-0724,0837,12219,028.3,045.5,0.221,753.7,01.17,0.508
2017-05-23 03:22:00,1788E-3,5C000400,-0724,0837,12165,028.3,045.5,0.221,753.7,01.17,0.508
2017-05-23 03:23:00,1774E-3,5C000400,-0724,0837,12117,028.3,045.5,0.221,753.7,01.17,0.508
2017-05-23 03:24:00,1697E-3,5C000400,-0724,0836,12185,028.3,045.5,0.221,753.6,01.17,0.508
2017-05-23 03:25:00,1874E-3,5C000400,-0724,0837,12095,028.3,045.5,0.220,753.7,01.17,0.508
2017-05-23 03:26:00,1726E-3,5C000400,-0724,0837,12074,028.4,045.5,0.220,753.7,01.17,0.508
2017-05-23 03:27:00,1758E-3,5C000400,-0724,0837,12047,028.4,045.5,0.220,753.7,01.17,0.508
2017-05-23 03:28:00,1891E-3,5C000400,-0724,0836,12022,028.4,045.5,0.220,753.7,01.17,0.508
2017-05-23 03:29:00,1732E-3,5C000400,-0724,0837,11985,028.4,045.5,0.220,753.7,01.17,0.508
2017-05-23 03:30:00,1815E-3,5C000400,-0724,0836,12022,028.4,045.5,0.220,753.6,01.17,0.508
2017-05-23 03:31:00,1698E-3,5C000400,-0724,0839,12095,028.4,045.5,0.220,753.6,01.17,0.508
2017-05-23 03:32:00,1807E-3,5C000400,-0724,0837,12126,028.4,045.5,0.220,753.6,01.17,0.508
2017-05-23 03:33:00,1810E-3,5C000400,-0724,0837,12064,028.5,045.5,0.220,753.6,01.17,0.508
2017-05-23 03:34:00,1659E-3,5C000400,-0724,0838,11973,028.5,045.5,0.220,753.6,01.17,0.508
2017-05-23 03:35:00,1798E-3,5C000400,-0724,0838,11983,028.5,045.5,0.220,753.6,01.17,0.508
2017-05-23 03:36:00,1846E-3,5C000400,-0724,0840,12244,028.5,045.5,0.220,753.6,01.17,0.508
2017-05-23 03:37:00,1814E-3,5C000400,-0724,0838,12429,028.5,045.5,0.220,753.6,01.17,0.508
2017-05-23 03:38:00,1832E-3,5C000400,-0724,0837,12176,028.5,045.5,0.220,753.6,01.17,0.508
2017-05-23 03:39:00,1734E-3,5C000400,-0724,0837,12034,028.6,045.5,0.220,753.6,01.17,0.508
2017-05-23 03:40:00,1832E-3,5C000400,-0724,0836,12010,028.6,045.5,0.220,753.5,01.17,0.508
2017-05-23 03:41:00,1820E-3,5C000400,-0724,0837,12175,028.6,045.5,0.220,753.6,01.17,0.508
2017-05-23 03:42:00,1760E-3,5C000400,-0724,0839,12248,028.6,045.5,0.220,753.5,01.17,0.508
2017-05-23 03:43:00,1677E-3,5C000400,-0724,0837,12133,028.6,045.5,0.220,753.5,01.17,0.508
2017-05-23 03:44:00,1697E-3,5C000400,-0724,0837,12031,028.6,045.5,0.220,753.5,01.17,0.508
2017-05-23 03:45:00,1739E-3,5C000400,-0724,0836,12071,028.6,045.5,0.220,753.5,01.17,0.508
2017-05-23 03:46:00,1708E-3,5C000400,-0724,0837,12171,028.7,045.5,0.220,753.5,01.17,0.508
2017-05-23 03:47:00,1733E-3,5C000400,-0724,0837,12106,028.7,045.5,0.220,753.5,01.17,0.508
2017-05-23 03:48:00,1765E-3,5C000400,-0724,0837,12067,028.7,045.5,0.219,753.5,01.17,0.508
2017-05-23 03:49:00,1745E-3,5C000400,-0724,0837,12063,028.7,045.5,0.219,753.5,01.17,0.508
2017-05-23 03:50:00,1746E-3,5C000400,-0724,0838,12038,028.7,045.5,0.219,753.5,01.17,0.508
2017-05-23 03:51:00,1811E-3,5C000400,-0724,0837,12100,028.7,045.5,0.219,753.6,01.17,0.508
2017-05-23 03:52:00,1754E-3,5C000400,-0724,0836,12208,028.7,045.5,0.219,753.6,01.17,0.508
2017-05-23 03:53:00,1692E-3,5C000400,-0724,0836,12012,028.7,045.5,0.219,753.5,01.17,0.508
2017-05-23 03:54:00,1826E-3,5C000400,-0724,0837,12088,028.7,045.5,0.219,753.5,01.17,0.508
2017-05-23 03:55:00,1788E-3,5C000400,-0724,0837,12018,028.8,045.5,0.219,753.5,01.17,0.508
2017-05-23 03:56:00,1784E-3,5C000400,-0724,0837,11948,028.8,045.5,0.219,753.5,01.17,0.508
2017-05-23 03:57:00,1786E-3,5C000400,-0724,0837,12228,028.8,045.5,0.219,753.5,01.17,0.508
2017-05-23 03:58:00,1598E-3,5C000400,-0724,0836,12052,028.8,045.5,0.219,753.5,01.17,0.508
2017-05-23 03:59:00,1835E-3,5C000400,-0724,0837,11996,028.8,045.5,0.219,753.5,01.17,0.508
2017-05-23 04:00:00,1709E-3,5C000400,-0724,0838,12107,028.8,045.5,0.219,753.5,01.17,0.508
2017-05-23 04:01:00,1647E-3,5C000400,-0724,0837,11987,028.8,045.5,0.219,753.5,01.17,0.508
2017-05-23 04:02:00,1752E-3,5C000400,-0724,0837,12109,028.8,045.5,0.219,753.5,01.17,0.508
2017-05-23 04:03:00,1755E-3,5C000400,-0724,0836,12075,028.8,045.5,0.219,753.5,01.17,0.508
2017-05-23 04:04:00,1778E-3,5C000400,-0724,0837,12130,028.9,045.5,0.219,753.4,01.17,0.508
2017-05-23 04:05:00,1696E-3,5C000400,-0724,0837,12263,028.9,045.5,0.219,753.4,01.17,0.508
2017-05-23 04:06:00,1729E-3,5C000400,-0724,0837,12109,028.9,045.5,0.219,753.4,01.17,0.508
2017-05-23 04:07:00,1692E-3,5C000400,-0724,0837,12184,028.9,045.5,0.219,753.4,01.17,0.508
2017-05-23 04:08:00,1776E-3,5C000400,-0724,0837,12098,028.9,045.5,0.219,753.4,01.17,0.508
2017-05-23 04:09:00,1756E-3,5C000400,-0724,0836,11931,028.9,045.5,0.219,753.4,01.17,0.508
2017-05-23 04:10:00,1682E-3,5C000400,-0724,0839,12161,028.9,045.5,0.219,753.4,01.17,0.508
2017-05-23 04:11:00,1686E-3,5C000400,-0724,0837,12078,029.0,045.5,0.219,753.4,01.17,0.508
2017-05-23 04:12:00,1733E-3,5C000400,-0724,0837,12105,029.0,045.5,0.219,753.4,01.17,0.508
2017-05-23 04:13:00,1820E-3,5C000400,-0724,0837,12079,029.0,045.5,0.219,753.4,01.17,0.508
2017-05-23 04:14:00,1917E-3,5C000400,-0724,0837,12032,029.0,045.5,0.219,753.4,01.17,0.508
2017-05-23 04:15:00,1854E-3,5C000400,-0724,0837,12034,029.0,045.5,0.219,753.4,01.17,0.508
2017-05-23 04:16:00,1829E-3,5C000400,-0724,0837,12041,029.0,045.5,0.219,753.4,01.17,0.508
2017-05-23 04:17:00,1761E-3,5C000400,-0724,0836,11904,029.0,045.5,0.219,753.4,01.17,0.508
2017-05-23 04:18:00,1688E-3,5C000400,-0724,0836,12208,029.0,045.5,0.219,753.4,01.17,0.508
2017-05-23 04:19:00,1890E-3,5C000400,-0724,0837,12050,029.1,045.5,0.219,753.4,01.17,0.508
2017-05-23 04:20:00,1834E-3,5C000400,-0724,0837,12055,029.1,045.5,0.219,753.4,01.17,0.508